| time (UTC) | temp F | wind direction | speed MPH | gust MPH | rain 1hr in | rain 24hr in | rain mn in | humidity % | barometer mb |
| 20260902110014 | 59 | 215 | 8.0 | 15.0 | 0.00 | 0.00 | 0.00 | 68 | 1007.6 |
| 20260902104545 | 59 | 281 | 7.0 | 16.0 | 0.00 | 0.00 | 0.00 | 68 | 1007.7 |
| 20260902103027 | 59 | 163 | 6.0 | 18.0 | 0.00 | 0.00 | 0.00 | 66 | 1007.4 |
| 20260902101514 | 59 | 144 | 7.0 | 16.0 | 0.00 | 0.00 | 0.00 | 66 | 1007.3 |
| 20260902100018 | 60 | 105 | 8.0 | 18.0 | 0.00 | 0.00 | 0.00 | 64 | 1007.4 |
| 20260902094516 | 60 | 178 | 6.0 | 17.0 | 0.00 | 0.00 | 0.00 | 63 | 1007.4 |
| 20260902093033 | 60 | 188 | 6.0 | 16.0 | 0.00 | 0.00 | 0.00 | 62 | 1007.2 |
| 20260902091531 | 61 | 136 | 4.0 | 15.0 | 0.00 | 0.00 | 0.00 | 61 | 1007.3 |
| 20260902090020 | 61 | 142 | 5.0 | 9.0 | 0.00 | 0.00 | 0.00 | 62 | 1007.6 |
| 20260902084502 | 61 | 199 | 4.0 | 13.0 | 0.00 | 0.00 | 0.00 | 62 | 1007.6 |
| 20260902083006 | 61 | 229 | 4.0 | 11.0 | 0.00 | 0.00 | 0.00 | 62 | 1007.6 |
| 20260902081504 | 62 | 115 | 5.0 | 15.0 | 0.00 | 0.00 | 0.00 | 61 | 1007.4 |
| 20260902080008 | 62 | 171 | 6.0 | 14.0 | 0.00 | 0.00 | 0.00 | 58 | 1007.5 |
| 20260902074505 | 63 | 161 | 6.0 | 15.0 | 0.00 | 0.00 | 0.00 | 58 | 1007.5 |
| 20260902073004 | 63 | 149 | 6.0 | 13.0 | 0.00 | 0.00 | 0.00 | 58 | 1007.3 |
| 20260902071504 | 64 | 186 | 5.0 | 14.0 | 0.00 | 0.00 | 0.00 | 57 | 1007.2 |
| 20260902070006 | 64 | 238 | 5.0 | 14.0 | 0.00 | 0.00 | 0.00 | 55 | 1006.9 |
| 20260902064507 | 64 | 215 | 5.0 | 16.0 | 0.00 | 0.00 | 0.00 | 54 | 1007.0 |
| 20260902063003 | 65 | 240 | 7.0 | 15.0 | 0.00 | 0.00 | 0.00 | 54 | 1006.4 |
| 20260902061507 | 65 | 159 | 6.0 | 17.0 | 0.00 | 0.00 | 0.00 | 53 | 1006.3 |
| 20260902060013 | 66 | 167 | 7.0 | 22.0 | 0.00 | 0.00 | 0.00 | 51 | 1006.2 |
| 20260902054508 | 66 | 143 | 8.0 | 21.0 | 0.00 | 0.00 | 0.00 | 51 | 1006.2 |
| 20260902053003 | 67 | 175 | 8.0 | 21.0 | 0.00 | 0.00 | 0.00 | 51 | 1006.1 |
| 20260902051506 | 67 | 163 | 9.0 | 23.0 | 0.00 | 0.00 | 0.00 | 51 | 1006.0 |
| 20260902050008 | 68 | 188 | 9.0 | 19.0 | 0.00 | 0.00 | 0.00 | 50 | 1005.9 |
| 20260902044531 | 69 | 176 | 8.0 | 16.0 | 0.00 | 0.00 | 0.00 | 48 | 1005.9 |
| 20260902043013 | 69 | 169 | 8.0 | 20.0 | 0.00 | 0.00 | 0.00 | 47 | 1005.7 |
| 20260902041503 | 70 | 240 | 6.0 | 16.0 | 0.00 | 0.00 | 0.00 | 45 | 1005.5 |
| 20260902040007 | 71 | 189 | 8.0 | 17.0 | 0.00 | 0.00 | 0.00 | 42 | 1005.4 |
| 20260902034505 | 72 | 177 | 6.0 | 18.0 | 0.00 | 0.00 | 0.00 | 40 | 1005.3 |
| 20260902033004 | 73 | 206 | 7.0 | 13.0 | 0.00 | 0.00 | 0.00 | 37 | 1005.2 |
| 20260902031535 | 74 | 205 | 5.0 | 12.0 | 0.00 | 0.00 | 0.00 | 35 | 1005.4 |
| 20260902030004 | 75 | 153 | 6.0 | 11.0 | 0.00 | 0.00 | 0.00 | 34 | 1005.1 |
| 20260902024507 | 76 | 139 | 4.0 | 13.0 | 0.00 | 0.00 | 0.00 | 34 | 1005.0 |
| 20260902023015 | 77 | 175 | 4.0 | 11.0 | 0.00 | 0.00 | 0.00 | 33 | 1004.9 |
| 20260902021515 | 78 | 178 | 2.0 | 7.0 | 0.00 | 0.00 | 0.00 | 34 | 1005.0 |
| 20260902020010 | 80 | 153 | 0.0 | 3.0 | 0.00 | 0.00 | 0.00 | 35 | 1005.0 |
| 20260902014521 | 80 | 175 | 0.0 | 4.0 | 0.00 | 0.00 | 0.00 | 34 | 1005.0 |
| 20260902013011 | 81 | 173 | 2.0 | 5.0 | 0.00 | 0.00 | 0.00 | 32 | 1005.0 |
| 20260902011518 | 81 | 178 | 1.0 | 6.0 | 0.00 | 0.00 | 0.00 | 31 | 1005.0 |
| 20260902010023 | 81 | 162 | 0.0 | 5.0 | 0.00 | 0.00 | 0.00 | 33 | 1005.0 |
| 20260902004518 | 81 | 180 | 1.0 | 5.0 | 0.00 | 0.00 | 0.00 | 32 | 1005.1 |
| 20260902003011 | 81 | 167 | 1.0 | 3.0 | 0.00 | 0.00 | 0.00 | 32 | 1005.1 |
| 20260902001515 | 82 | 157 | 0.0 | 1.0 | 0.00 | 0.00 | 0.00 | 38 | 1005.1 |
| 20260902000034 | 83 | 155 | 0.0 | 3.0 | 0.00 | 0.00 | 0.00 | 37 | 1005.2 |
| 20260901234545 | 83 | 153 | 0.0 | 2.0 | 0.00 | 0.00 | 0.00 | 35 | 1005.2 |
| 20260901233024 | 83 | 130 | 0.0 | 4.0 | 0.00 | 0.00 | 0.00 | 32 | 1005.2 |
| 20260901231513 | 83 | 123 | 0.0 | 1.0 | 0.00 | 0.00 | 0.00 | 29 | 1005.3 |
| 20260901230008 | 83 | 142 | 0.0 | 4.0 | 0.00 | 0.00 | 0.00 | 29 | 1005.5 |
| 20260901224502 | 82 | 167 | 2.0 | 7.0 | 0.00 | 0.00 | 0.00 | 30 | 1005.5 |
| 20260901223003 | 81 | 172 | 2.0 | 7.0 | 0.00 | 0.00 | 0.00 | 34 | 1005.7 |
| 20260901221505 | 81 | 159 | 3.0 | 9.0 | 0.00 | 0.00 | 0.00 | 33 | 1005.9 |
| 20260901220002 | 81 | 180 | 3.0 | 9.0 | 0.00 | 0.00 | 0.00 | 34 | 1005.8 |
| 20260901214503 | 80 | 171 | 1.0 | 7.0 | 0.00 | 0.00 | 0.00 | 38 | 1005.9 |
| 20260901213003 | 80 | 161 | 1.0 | 8.0 | 0.00 | 0.00 | 0.00 | 37 | 1006.1 |
| 20260901211502 | 79 | 191 | 3.0 | 7.0 | 0.00 | 0.00 | 0.00 | 39 | 1006.2 |
| 20260901210004 | 78 | 192 | 0.0 | 6.0 | 0.00 | 0.00 | 0.00 | 41 | 1006.4 |
| 20260901204503 | 77 | 268 | 0.0 | 3.0 | 0.00 | 0.00 | 0.00 | 44 | 1006.7 |
| 20260901203003 | 77 | 203 | 0.0 | 8.0 | 0.00 | 0.00 | 0.00 | 43 | 1006.8 |
| 20260901201509 | 75 | 155 | 4.0 | 9.0 | 0.00 | 0.00 | 0.00 | 45 | 1007.0 |
| 20260901200003 | 73 | 200 | 0.0 | 6.0 | 0.00 | 0.00 | 0.00 | 50 | 1007.3 |
| 20260901194507 | 72 | 171 | 2.0 | 7.0 | 0.00 | 0.00 | 0.00 | 50 | 1007.6 |
| 20260901193004 | 71 | 180 | 1.0 | 8.0 | 0.00 | 0.00 | 0.00 | 51 | 1007.7 |
| 20260901191505 | 71 | 163 | 3.0 | 9.0 | 0.00 | 0.00 | 0.00 | 52 | 1007.7 |
| 20260901190003 | 71 | 175 | 3.0 | 12.0 | 0.00 | 0.00 | 0.00 | 52 | 1007.7 |
| 20260901184504 | 70 | 177 | 3.0 | 14.0 | 0.00 | 0.00 | 0.00 | 52 | 1007.5 |
| 20260901183003 | 70 | 174 | 4.0 | 10.0 | 0.00 | 0.00 | 0.00 | 52 | 1007.5 |
| 20260901181503 | 70 | 182 | 4.0 | 9.0 | 0.00 | 0.00 | 0.00 | 53 | 1007.7 |
| 20260901180003 | 70 | 192 | 3.0 | 9.0 | 0.00 | 0.00 | 0.00 | 52 | 1007.6 |
| 20260901174508 | 69 | 182 | 4.0 | 11.0 | 0.00 | 0.00 | 0.00 | 52 | 1007.7 |
| 20260901173005 | 70 | 177 | 5.0 | 11.0 | 0.00 | 0.00 | 0.00 | 50 | 1007.8 |
| 20260901171502 | 70 | 210 | 4.0 | 9.0 | 0.00 | 0.00 | 0.00 | 45 | 1008.0 |
| 20260901170007 | 71 | 177 | 1.0 | 6.0 | 0.00 | 0.00 | 0.00 | 43 | 1007.4 |
| 20260901164504 | 71 | 150 | 2.0 | 6.0 | 0.00 | 0.00 | 0.00 | 41 | 1007.5 |
| 20260901163005 | 72 | 173 | 2.0 | 6.0 | 0.00 | 0.00 | 0.00 | 40 | 1007.6 |
| 20260901161521 | 71 | 170 | 0.0 | 7.0 | 0.00 | 0.00 | 0.00 | 41 | 1007.6 |
| 20260901160015 | 70 | 203 | 0.0 | 4.0 | 0.00 | 0.00 | 0.00 | 43 | 1007.7 |
| 20260901154507 | 68 | 174 | 0.0 | 6.0 | 0.00 | 0.00 | 0.00 | 43 | 1007.4 |
| 20260901153007 | 67 | 147 | 0.0 | 5.0 | 0.00 | 0.00 | 0.00 | 45 | 1007.4 |
| 20260901151508 | 64 | 163 | 0.0 | 3.0 | 0.00 | 0.00 | 0.00 | 49 | 1007.4 |
| 20260901150011 | 62 | 143 | 0.0 | 0.0 | 0.00 | 0.00 | 0.00 | 57 | 1007.3 |
| 20260901144513 | 61 | 143 | 0.0 | 0.0 | 0.00 | 0.00 | 0.00 | 56 | 1007.3 |
| 20260901143011 | 61 | 143 | 0.0 | 0.0 | 0.00 | 0.00 | 0.00 | 57 | 1007.2 |
| 20260901141511 | 61 | 61 | 0.0 | 0.0 | 0.00 | 0.00 | 0.00 | 56 | 1007.2 |
| 20260901140004 | 61 | 61 | 0.0 | 0.0 | 0.00 | 0.00 | 0.00 | 57 | 1007.0 |
| 20260901134511 | 61 | 61 | 0.0 | 0.0 | 0.00 | 0.00 | 0.00 | 56 | 1006.9 |
| 20260901133009 | 62 | 61 | 0.0 | 0.0 | 0.00 | 0.00 | 0.00 | 54 | 1006.8 |
| 20260901131508 | 62 | 320 | 0.0 | 0.0 | 0.00 | 0.00 | 0.00 | 56 | 1007.1 |
| 20260901130006 | 62 | 180 | 2.0 | 10.0 | 0.00 | 0.00 | 0.00 | 55 | 1007.2 |
| 20260901124504 | 62 | 169 | 0.0 | 0.0 | 0.00 | 0.00 | 0.00 | 58 | 1006.7 |
| 20260901123003 | 62 | 169 | 0.0 | 0.0 | 0.00 | 0.00 | 0.00 | 57 | 1006.6 |
| 20260901121513 | 63 | 169 | 0.0 | 0.0 | 0.00 | 0.00 | 0.00 | 55 | 1006.6 |
| 20260901120013 | 64 | 169 | 0.0 | 0.0 | 0.00 | 0.00 | 0.00 | 60 | 1006.8 |
| 20260901114504 | 64 | 170 | 0.0 | 0.0 | 0.00 | 0.00 | 0.00 | 48 | 1006.7 |
| 20260901113016 | 63 | 170 | 0.0 | 0.0 | 0.00 | 0.00 | 0.00 | 46 | 1006.8 |
| 20260901111505 | 63 | 173 | 0.0 | 0.0 | 0.00 | 0.00 | 0.00 | 47 | 1006.5 |